Change the Weather History Date:

Wednesday, October 31, 2012

  Actual Average (KOLM) Record (KOLM)
Temperature  
Mean Temperature 56 °F 47 °F  
Max Temperature 59 °F 55 °F 74 °F (1949)
Min Temperature 53 °F 39 °F 14 °F (2002)
Degree Days  
Heating Degree Days 9 18  
Month to date heating degree days 454  
Since 1 July heating degree days 794  
Cooling Degree Days 0 0  
Month to date cooling degree days 0  
Year to date cooling degree days 106  
Growing Degree Days 6 (Base 50)    
Moisture  
Dew Point 55 °F    
Average Humidity 94    
Maximum Humidity 100    
Minimum Humidity 88    
Precipitation  
Precipitation 0.52 in 0.22 in 2.95 in (1994)
Month to date precipitation 4.60  
Year to date precipitation 33.91  
Sea Level Pressure  
Sea Level Pressure 29.69 in    
Wind  
Wind Speed 6 mph (South)    
Max Wind Speed 17 mph    
Max Gust Speed 26 mph    
Visibility 8 miles    
Events Rain    
T = Trace of Precipitation, MM = Missing Value Source: NWS Daily Summary

Daily Weather History Graph

Daily Weather History Graph

Search for Another Location

Airport or City:

Trip Planner

Search our weather history database for the weather conditions in past years. The results will help you decide how hot, cold, wet, or windy it might be!

Date:

Astronomy

Oct. 31, 2012 Rise Set
Actual Time 7:53 AM PDT 5:57 PM PDT
Civil Twilight 7:21 AM PDT 6:28 PM PDT
Nautical Twilight 6:45 AM PDT 7:04 PM PDT
Astronomical Twilight 6:10 AM PDT 7:39 PM PDT
Moon 7:04 PM PDT (10/31) 9:46 AM PDT (10/31)
Length of Visible Light 11h 06m
Length of Day
10h 03m
Waning Gibbous, 97% of the Moon is Illuminated
Oct 31
Waning Gibbous
Nov 6
Last Quarter
Nov 13
New
Nov 20
First Quarter
Nov 28
Full

Hourly Weather History & Observations

Time (PDT) Temp. Dew Point Humidity Pressure Visibility Wind Dir Wind Speed Gust Speed Precip Events Conditions
12:15 AM 59.0 °F 57.2 °F 94% 29.77 in 10.0 mi South 4.6 mph - 0.02 in Rain Light Rain
12:35 AM 59.0 °F 57.2 °F 94% 29.77 in 8.0 mi SSW 3.5 mph - 0.03 in Rain Light Rain
1:15 AM 57.2 °F 57.2 °F 100% 29.77 in 2.5 mi South 4.6 mph - 0.02 in Rain Light Rain
1:35 AM 57.2 °F 57.2 °F 100% 29.76 in 2.5 mi South 4.6 mph - 0.05 in Rain Rain
1:55 AM 57.2 °F 57.2 °F 100% 29.75 in 2.5 mi Calm Calm - 0.08 in Rain Light Rain
2:15 AM 57.2 °F 57.2 °F 100% 29.74 in 9.0 mi SSE 4.6 mph - 0.02 in Rain Light Rain
2:35 AM 57.2 °F 57.2 °F 100% 29.74 in 8.0 mi South 4.6 mph - 0.06 in Rain Light Rain
2:55 AM 57.2 °F 57.2 °F 100% 29.73 in 8.0 mi South 4.6 mph - 0.08 in Rain Light Rain
3:15 AM 57.2 °F 57.2 °F 100% 29.73 in 9.0 mi South 4.6 mph - 0.02 in Rain Light Rain
3:35 AM 57.2 °F 57.2 °F 100% 29.72 in 5.0 mi South 6.9 mph - 0.04 in Rain Light Rain
3:55 AM 57.2 °F 57.2 °F 100% 29.71 in 5.0 mi South 4.6 mph - 0.06 in Rain Light Rain
4:15 AM 57.2 °F 57.2 °F 100% 29.71 in 5.0 mi South 5.8 mph - 0.01 in Rain Light Rain
4:35 AM 57.2 °F 57.2 °F 100% 29.70 in 6.0 mi SSE 4.6 mph - 0.02 in Rain Light Rain
4:55 AM 57.2 °F 57.2 °F 100% 29.69 in 8.0 mi Calm Calm - 0.03 in Rain Light Rain
5:15 AM 57.2 °F 57.2 °F 100% 29.69 in 4.0 mi South 3.5 mph - 0.01 in Rain Light Rain
5:35 AM 57.2 °F 57.2 °F 100% 29.68 in 6.0 mi South 4.6 mph - 0.03 in Rain Light Rain
5:55 AM 57.2 °F 57.2 °F 100% 29.67 in 8.0 mi SSW 4.6 mph - 0.05 in Rain Light Rain
6:15 AM 57.2 °F 57.2 °F 100% 29.67 in 9.0 mi South 4.6 mph - 0.01 in Rain Light Rain
6:35 AM 57.2 °F 55.4 °F 94% 29.67 in 10.0 mi SSW 4.6 mph - 0.03 in Rain Light Rain
6:55 AM 57.2 °F 55.4 °F 94% 29.67 in 8.0 mi SSW 4.6 mph - 0.04 in Rain Light Rain
7:15 AM 57.2 °F 55.4 °F 94% 29.66 in 9.0 mi South 5.8 mph - 0.01 in Rain Light Rain
7:35 AM 57.2 °F 55.4 °F 94% 29.65 in 10.0 mi South 5.8 mph - 0.02 in Rain Light Rain
7:55 AM 57.2 °F 55.4 °F 94% 29.65 in 10.0 mi South 8.1 mph - 0.04 in Rain Light Rain
8:15 AM 57.2 °F 55.4 °F 94% 29.65 in 10.0 mi South 8.1 mph - N/A Rain Light Rain
8:35 AM 57.2 °F 55.4 °F 94% 29.65 in 5.0 mi South 6.9 mph - 0.01 in Rain Light Rain
8:55 AM 57.2 °F 55.4 °F 94% 29.66 in 7.0 mi South 6.9 mph - 0.01 in Rain Light Rain
9:15 AM 57.2 °F 55.4 °F 94% 29.66 in 9.0 mi South 8.1 mph - 0.01 in Rain Light Rain
9:35 AM 57.2 °F 55.4 °F 94% 29.65 in 8.0 mi South 6.9 mph - 0.02 in Rain Light Rain
9:55 AM 57.2 °F 55.4 °F 94% 29.65 in 8.0 mi South 9.2 mph - 0.02 in Rain Light Rain
10:15 AM 57.2 °F 55.4 °F 94% 29.65 in 4.0 mi South 10.4 mph - N/A Rain Light Rain
10:35 AM 57.2 °F 55.4 °F 94% 29.65 in 9.0 mi South 10.4 mph - 0.01 in Rain Light Rain
10:55 AM 57.2 °F 55.4 °F 94% 29.64 in 10.0 mi South 12.7 mph 17.3 mph 0.01 in Rain Light Rain
11:15 AM 57.2 °F 55.4 °F 94% 29.65 in 7.0 mi South 13.8 mph 20.7 mph 0.01 in Rain Light Rain
11:35 AM 57.2 °F 55.4 °F 94% 29.65 in 10.0 mi South 11.5 mph 19.6 mph 0.01 in Rain Light Rain
11:55 AM 57.2 °F 55.4 °F 94% 29.65 in 5.0 mi South 8.1 mph 19.6 mph 0.02 in Rain Light Rain
12:15 PM 57.2 °F 55.4 °F 94% 29.65 in 9.0 mi South 12.7 mph 18.4 mph N/A Rain Light Rain
12:55 PM 57.2 °F 55.4 °F 94% 29.65 in 10.0 mi South 12.7 mph 20.7 mph 0.01 in Rain Light Rain
1:15 PM 57.2 °F 55.4 °F 94% 29.65 in 5.0 mi South 13.8 mph 20.7 mph 0.01 in Rain Light Rain
1:35 PM 57.2 °F 55.4 °F 94% 29.66 in 10.0 mi South 15.0 mph 24.2 mph 0.01 in Rain Light Rain
1:55 PM 57.2 °F 55.4 °F 94% 29.65 in 7.0 mi South 15.0 mph 23.0 mph 0.01 in Rain Light Rain
2:15 PM 57.2 °F 55.4 °F 94% 29.67 in 8.0 mi South 17.3 mph 21.9 mph 0.01 in Rain Light Rain
2:35 PM 57.2 °F 55.4 °F 94% 29.67 in 10.0 mi South 10.4 mph 26.5 mph 0.01 in   Unknown
2:55 PM 59.0 °F 55.4 °F 88% 29.67 in 10.0 mi South 13.8 mph 20.7 mph 0.02 in   Unknown
3:35 PM 57.2 °F 55.4 °F 94% 29.69 in 5.0 mi South 11.5 mph 19.6 mph N/A Rain Light Rain
3:55 PM 57.2 °F 55.4 °F 94% 29.69 in 10.0 mi South 12.7 mph 17.3 mph N/A   Unknown
4:35 PM 57.2 °F 55.4 °F 94% 29.70 in 3.0 mi South 11.5 mph 18.4 mph N/A   Mist
4:55 PM 57.2 °F 55.4 °F 94% 29.70 in 9.0 mi South 11.5 mph - N/A   Unknown
5:35 PM 57.2 °F 53.6 °F 88% 29.70 in 10.0 mi South 15.0 mph 24.2 mph 0.02 in   Unknown
5:55 PM 57.2 °F 53.6 °F 88% 29.71 in 10.0 mi South 10.4 mph 19.6 mph 0.02 in   Unknown
6:15 PM 57.2 °F 53.6 °F 88% 29.71 in 10.0 mi South 10.4 mph 18.4 mph N/A   Unknown
6:35 PM 57.2 °F 53.6 °F 88% 29.71 in 10.0 mi SSE 8.1 mph 19.6 mph N/A   Unknown
6:55 PM 55.4 °F 51.8 °F 88% 29.72 in 10.0 mi South 11.5 mph 17.3 mph N/A   Unknown
7:15 PM 55.4 °F 53.6 °F 94% 29.72 in 10.0 mi South 11.5 mph 16.1 mph N/A   Unknown
7:35 PM 55.4 °F 51.8 °F 88% 29.72 in 10.0 mi South 10.4 mph 16.1 mph N/A Rain Light Rain
7:55 PM 53.6 °F 51.8 °F 94% 29.72 in 10.0 mi South 8.1 mph - N/A   Unknown
8:15 PM 53.6 °F 51.8 °F 94% 29.72 in 10.0 mi South 6.9 mph - 0.01 in   Unknown
8:35 PM 53.6 °F 51.8 °F 94% 29.72 in 10.0 mi South 5.8 mph - 0.01 in   Unknown
8:55 PM 55.4 °F 51.8 °F 88% 29.72 in 10.0 mi South 8.1 mph - 0.01 in   Unknown
9:15 PM 53.6 °F 51.8 °F 94% 29.71 in 7.0 mi South 5.8 mph - N/A   Unknown
9:35 PM 53.6 °F 51.8 °F 94% 29.72 in 10.0 mi Calm Calm - N/A   Unknown
9:55 PM 53.6 °F 50.0 °F 88% 29.72 in 10.0 mi Calm Calm - N/A   Unknown
10:15 PM 53.6 °F 50.0 °F 88% 29.72 in 10.0 mi Calm Calm - N/A   Unknown
10:35 PM 53.6 °F 50.0 °F 88% 29.72 in 10.0 mi Calm Calm - N/A   Unknown
10:55 PM 53.6 °F 51.8 °F 94% 29.72 in 10.0 mi Calm Calm - N/A   Unknown
11:15 PM 53.6 °F 51.8 °F 94% 29.72 in 9.0 mi Calm Calm - N/A   Unknown
11:35 PM 53.6 °F 50.0 °F 88% 29.72 in 9.0 mi Calm Calm - N/A Rain Light Rain
11:55 PM 53.6 °F 50.0 °F 88% 29.71 in 10.0 mi Calm Calm - 0.01 in   Unknown